Showing default

CALSPHERE 2, 902

Orbit data source: Space-Track

CALSPHERE 2, 902 is a payload satellite owned by NRL (US) in LEO that was launched on Tue, 06 Oct 1964 UTC via a THOR ABLESTAR launch vehicle from the Air Force Western Test Range (AFWTR). Payload-class satellites include a variety of spacecraft equipped with specific instruments for various scientific and technological missions. These include communications satellites like Starlink; space stations such as the ISS; scientific satellites like the Hubble; Earth observation satellites from companies like Planet Labs, Umbra, and HawkEye 360; GPS; miniature CubeSats for education and research; and military/defense satellites.

Loading next visibility...
Identifier
902, 1964-063E
Orbit
LEO
Country
Flag of USUS
Related business
Manufacturer
NRL
Mission
Operational spacecraft
Bus & Motor
NRL 14", Unknown motor
Mass
10 kg wet, 10 kg dry
Launch date (UTC)
1964-10-06 (61 years ago)
Launch vehicle
THOR ABLESTAR
Launch site
Air Force Western Test Range (AFWTR)
Object type
Payload
Rocket body
Debris
Shape & HBR
Unknown
Radar Cross Section
Small (<0.1 m²)

Expand to show TLE details & history
Last TLE update: 7 hours ago

TLE from 7 hours ago
0 CALSPHERE 2
1   902U 64063E   25342.74461420  .00000103  00000-0  14169-3 0  9992
2   902  90.2361  71.3055 0020225  63.3963  56.7589 13.52882359830519
Epoch: 2025-12-08T17:52Z
TLE epoch observation values (Epoch: 2025-12-08T17:52:14.666Z)
Latitude
59.74032°
Longitude
-94.09224°
Altitude
1,063.675 km
Speed
7.33 km/s
True Right ascension
16h 46m 49s
True Declination
59° 35' 48"
Sunlit
Object was in daylight at epoch
Visualization orbit readout
Latitude
Unknown
Longitude
Unknown
Altitude
Unknown
Speed
Unknown
Apparent Right ascension
Unknown
Apparent Declination
Unknown
Sunlit
N/A
Visualization observer readout
Local Sidereal Time
23:19:54
Azimuth
Unknown
Elevation
Unknown
Doppler factor
Unknown
Orbital elements
Apogee altitude
1,073.759 km
Perigee altitude
1,043.677 km
Semi-major axis
7,436.855 km
Eccentricity
0.00202
Inclination
90.2361°
RAAN
71.3055°
Arg. of periapsis
63.3963°
True anomaly
56.95301°
Mean anomaly
56.7589°
Eccentric anomaly
56.85593°
Mean motion
3.38422 °/min
Orbital period
106.38 mins
BSTAR
0.00014169
Loading maneuver chart data...
Computing Atmospheric mass density...
Loading historical data...
Loading historical data...
Loading historical data...
Loading historical data...
Loading historical data...
Loading historical data...
Loading historical data...

Documentation

Showing up to 5 results
|